Walla Walla, WA

3:50 PM PST on December 04, 2016 (GMT -0800)
Walla Walla Regional

Weather History for KALW - March, 2013

Change the Weather History Date:

Tuesday, March 5, 2013

  Actual Average Record
Temperature  
Mean Temperature 36 °F 43 °F  
Max Temperature 43 °F 52 °F 72 °F (1987)
Min Temperature 30 °F 35 °F 10 °F (1955)
Degree Days  
Heating Degree Days 28 22  
Month to date heating degree days 112  
Since 1 July heating degree days 3889  
Cooling Degree Days 0 0  
Month to date cooling degree days 0  
Year to date cooling degree days 0  
Moisture  
Dew Point 29 °F    
Average Humidity 71    
Maximum Humidity 86    
Minimum Humidity 54    
Precipitation  
Precipitation 0.00 in 0.07 in 0.39 in (2014)
Month to date precipitation 0.36  
Year to date precipitation 4.65  
Snow  
Snow 0.00 in 0.10 in 2.00 in (1980)
Month to date snowfall 0.3  
Year to date snowfall 5.3  
Since 1 July snowfall 11.0  
Snow Depth -    
Sea Level Pressure  
Sea Level Pressure 29.91 in    
Wind  
Wind Speed 4 mph (South)    
Max Wind Speed 9 mph    
Max Gust Speed -    
Visibility 10 miles    
Events      
T = Trace of Precipitation, MM = Missing Value Source: NWS Daily Summary

Daily Weather History Graph

Daily Weather History Graph

Search for Another Location

Airport or City:

Trip Planner

Search our weather history database for the weather conditions in past years. The results will help you decide how hot, cold, wet, or windy it might be!

Date:

Astronomy

Mar. 05, 2013 Rise Set
Actual Time 6:24 AM PST 5:45 PM PST
Civil Twilight 5:54 AM PST 6:15 PM PST
Nautical Twilight 5:19 AM PST 6:50 PM PST
Astronomical Twilight 4:44 AM PST 7:25 PM PST
Moon 1:55 AM PST (3/5) 11:14 AM PST (3/5)
Length of Visible Light 12h 21m
Length of Day
11h 21m
Last Quarter, 39% of the Moon is Illuminated
Mar 5
Last Quarter
Mar 11
New
Mar 19
First Quarter
Mar 27
Full
Apr 2
Last Quarter

Hourly Weather History & Observations

Time (PST) Temp. Windchill Dew Point Humidity Pressure Visibility Wind Dir Wind Speed Gust Speed Precip Events Conditions
12:53 AM 37.0 °F 32.4 °F 21.9 °F 54% 30.01 in 10.0 mi NNE 5.8 mph - N/A   Clear
1:53 AM 36.0 °F - 21.0 °F 55% 29.99 in 10.0 mi Calm Calm - N/A   Clear
2:53 AM 30.9 °F 25.2 °F 23.0 °F 72% 29.98 in 10.0 mi SSW 5.8 mph - N/A   Clear
3:53 AM 30.9 °F 25.2 °F 24.1 °F 76% 29.98 in 10.0 mi South 5.8 mph - N/A   Clear
5:53 AM 30.9 °F 24.3 °F 23.0 °F 72% 29.97 in 10.0 mi South 6.9 mph - N/A   Partly Cloudy
6:53 AM 30.9 °F 22.8 °F 24.1 °F 76% 29.98 in 10.0 mi SSE 9.2 mph - N/A   Overcast
7:53 AM 32.0 °F 26.4 °F 25.0 °F 75% 29.97 in 10.0 mi South 5.8 mph - N/A   Overcast
8:53 AM 34.0 °F - 27.0 °F 75% 29.94 in 10.0 mi Calm Calm - N/A   Overcast
9:53 AM 36.0 °F 33.3 °F 27.0 °F 70% 29.93 in 10.0 mi WSW 3.5 mph - N/A   Mostly Cloudy
10:53 AM 36.0 °F 33.3 °F 28.0 °F 73% 29.94 in 10.0 mi SW 3.5 mph - N/A   Overcast
11:53 AM 37.0 °F - 28.0 °F 70% 29.92 in 10.0 mi Calm Calm - N/A   Overcast
12:53 PM 39.0 °F 35.7 °F 28.9 °F 67% 29.90 in 10.0 mi WSW 4.6 mph - N/A   Overcast
1:53 PM 39.9 °F 37.8 °F 30.0 °F 68% 29.90 in 10.0 mi Variable 3.5 mph - N/A   Overcast
2:53 PM 41.0 °F - 28.9 °F 62% 29.89 in 10.0 mi Calm Calm - N/A   Overcast
3:53 PM 42.1 °F - 30.0 °F 62% 29.87 in 10.0 mi Calm Calm - N/A   Clear
4:53 PM 42.1 °F 38.4 °F 30.9 °F 65% 29.86 in 10.0 mi South 5.8 mph - N/A   Clear
5:53 PM 42.1 °F 37.7 °F 30.9 °F 65% 29.87 in 10.0 mi SSE 6.9 mph - N/A   Overcast
6:53 PM 43.0 °F 37.7 °F 34.0 °F 71% 29.87 in 10.0 mi South 9.2 mph - N/A   Overcast
7:53 PM 41.0 °F 35.8 °F 34.0 °F 76% 29.87 in 10.0 mi SSW 8.1 mph - N/A   Overcast
8:53 PM 39.9 °F 35.1 °F 34.0 °F 79% 29.86 in 10.0 mi SSW 6.9 mph - N/A   Overcast
9:53 PM 39.9 °F - 35.1 °F 83% 29.83 in 10.0 mi Calm Calm - 0.00 in   Overcast
10:53 PM 39.9 °F 37.8 °F 35.1 °F 83% 29.82 in 10.0 mi SE 3.5 mph - 0.00 in   Overcast
11:53 PM 39.0 °F 34.8 °F 35.1 °F 86% 29.81 in 10.0 mi South 5.8 mph - N/A   Overcast